COSMOS 1275 DEB, 12720

Orbit data source: Space-Track

COSMOS 1275 DEB, 12720 is space debris in LEO originally from a launch on Thu, 04 Jun 1981 UTC launched from the Plesetsk Missile And Space Complex (PKMTR). Debris objects in space refer to the collection of defunct objects orbiting the Earth. Examples of debris include non-operational satellites, rocket bodies, and fragments generated from explosions, collisions, or faulty payload assembly.

Loading next visibility...
Identifier
12720, 1981-053BM
Orbit
LEO
Country
Flag of CISCIS
Related business
Manufacturer
Unknown
Mission
Spacecraft
Bus & Motor
Unknown
Mass
Unknown
Launch date (UTC)
1981-06-04 (45 years ago)
Launch vehicle
Unknown
Launch site
Plesetsk Missile And Space Complex (PKMTR)
Object type
Payload
Rocket body
Debris
Shape & HBR
Unknown shape, 0.1 m
Radar Cross Section
Small (<0.1 m²)

Expand to show TLE details & history
Last TLE update: 10 hours ago

TLE from 10 hours ago
0 COSMOS 1275 DEB
1 12720U 81053BM  26034.64726704  .00002419  00000-0  19400-2 0  9992
2 12720  83.2537 164.8806 0113495 197.6135 179.3051 13.87377627 91120
Epoch: 2026-02-03T15:32Z
TLE epoch observation values (Epoch: 2026-02-03T15:32:03.872Z)
Latitude
16.79796°
Longitude
160.07518°
Altitude
1,023.178 km
Speed
7.3 km/s
True Right ascension
11h 07m 39s
True Declination
16° 42' 23"
Sunlit
Object was in full shadow at epoch
Visualization orbit readout
Latitude
Unknown
Longitude
Unknown
Altitude
Unknown
Speed
Unknown
Apparent Right ascension
Unknown
Apparent Declination
Unknown
Sunlit
N/A
Visualization observer readout
Local Sidereal Time
03:18:56
Azimuth
Unknown
Elevation
Unknown
Doppler factor
Unknown
Orbital elements
Apogee altitude
1,017.955 km
Perigee altitude
851.955 km
Semi-major axis
7,313.092 km
Eccentricity
0.01135
Inclination
83.2537°
RAAN
164.8806°
Arg. of periapsis
197.6135°
True anomaly
179.32065°
Mean anomaly
179.3051°
Eccentric anomaly
179.3129°
Mean motion
3.4705 °/min
Orbital period
103.73 mins
BSTAR
0.00194
Loading maneuver chart data...
Computing Atmospheric mass density...
Loading historical data...
Loading historical data...
Loading historical data...
Loading historical data...
Loading historical data...
Loading historical data...
Loading historical data...

Documentation

Showing up to 5 results
|